Location: Unspecified
(35.7250°N, 0.0000°E)
Time: 12:42:03
(UTC+00:00)

Explorer 7 - Pass Details

Date: 20 June 2019
Orbit: 485 x 680 km, 50.3° (Epoch: 22 July)

Event Time Altitude Azimuth Distance (km) Brightness Sun altitude
Rises 15:12:56 0° 312° (NW) 2,996 11.0 47.1°
Reaches altitude 10° 15:15:20 10° 318° (NW) 2,098 10.3 46.6°
Maximum altitude 15:20:05 52° 34° (NE) 847 8.1 45.6°
Drops below altitude 10° 15:24:52 10° 111° (ESE) 2,108 9.5 44.7°
Sets 15:27:17 0° 116° (ESE) 3,012 10.2 44.2°
